FALCON 9 R/B, 40618

Orbit data source: Space-Track

FALCON 9 R/B, 40618 is space debris in HEO originally from a launch on Mon, 27 Apr 2015 UTC launched from the Air Force Eastern Test Range (AFETR). Debris objects in space refer to the collection of defunct objects orbiting the Earth. Examples of debris include non-operational satellites, rocket bodies, and fragments generated from explosions, collisions, or faulty payload assembly.

Loading next visibility...
Identifier
40618, 2015-023B
Orbit
HEO
Country
Flag of USUS
Related business
Manufacturer
SpaceX
Mission
Spacecraft
Bus & Motor
F9ST2, Unknown motor
Mass
~4,000 kg wet, ~4,000 kg dry
Launch date (UTC)
2015-04-27 (11 years ago)
Launch vehicle
Unknown
Launch site
Air Force Eastern Test Range (AFETR)
Object type
Payload
Rocket body
Debris
Shape & HBR
Cyl, 7.3 m
Radar Cross Section
46.370 m², Large (>1 m²)

Expand to show TLE details & history
Last TLE update: 10 hours ago

TLE from 10 hours ago
0 FALCON 9 R/B
1 40618U 15023B   26062.10649202  .00086003  51245-6  14568-2 0  9996
2 40618  25.1560 282.6369 5816220  88.5981 333.3969  4.42090353124822
Epoch: 2026-03-03T02:33Z
TLE epoch observation values (Epoch: 2026-03-03T02:33:20.910Z)
Latitude
-0.00009°
Longitude
83.43094°
Altitude
3,835.679 km
Speed
7.255 km/s
True Right ascension
18h 50m 38s
True Declination
0° 00' 00"
Sunlit
Object was in daylight at epoch
Visualization orbit readout
Latitude
Unknown
Longitude
Unknown
Altitude
Unknown
Speed
Unknown
Apparent Right ascension
Unknown
Apparent Declination
Unknown
Sunlit
N/A
Visualization observer readout
Local Sidereal Time
16:44:41
Azimuth
Unknown
Elevation
Unknown
Doppler factor
Unknown
Orbital elements
Apogee altitude
18,430.493 km
Perigee altitude
184.357 km
Semi-major axis
15,685.562 km
Eccentricity
0.58162
Inclination
25.156°
RAAN
282.6369°
Arg. of periapsis
88.5981°
True anomaly
271.36381°
Mean anomaly
333.3969°
Eccentric anomaly
306.6665°
Mean motion
1.10482 °/min
Orbital period
325.84 mins
BSTAR
0.0014568
Loading maneuver chart data...
Computing Atmospheric mass density...
Loading historical data...
Loading historical data...
Loading historical data...
Loading historical data...
Loading historical data...
Loading historical data...
Loading historical data...
Other satellites on launch #23 in the year 2015 (2015-04-27 UTC)

Documentation

Showing up to 5 results
|